INTELSAT 33E DEB, 61992

Orbit data source: Space-Track

INTELSAT 33E DEB, 61992 is space debris in GEO originally from a launch on Wed, 24 Aug 2016 UTC launched from the French Guiana (FRGUI). Debris objects in space refer to the collection of defunct objects orbiting the Earth. Examples of debris include non-operational satellites, rocket bodies, and fragments generated from explosions, collisions, or faulty payload assembly.

Loading next visibility...
Identifier
61992, 2016-053J
Orbit
GEO
Country
Flag of USUS / ITSO
Related business
Manufacturer
Boeing/ES
Mission
Spacecraft
Bus & Motor
Unknown
Mass
Unknown
Launch date (UTC)
2016-08-24 (10 years ago)
Launch vehicle
Unknown
Launch site
French Guiana (FRGUI)
Object type
Payload
Rocket body
Debris
Shape & HBR
Unknown shape, 1.1 m
Radar Cross Section
RCS unknown

Expand to show TLE details & history
Last TLE update: 1 day ago

TLE from 1 day ago
0 INTELSAT 33E DEB
1 61992U 16053J   26250.48039308 -.00000292  00000-0  00000-0 0  9996
2 61992   1.7687  82.6817 0039531 319.6162  40.7232  1.00802718  6943
Epoch: 2026-09-07T11:31Z
TLE epoch observation values (Epoch: 2026-09-07T11:31:45.962Z)
Latitude
0.00002°
Longitude
-76.1826°
Altitude
35,513.079 km
Speed
3.089 km/s
True Right ascension
05h 33m 16s
True Declination
0° 00' 00"
Sunlit
Object was in daylight at epoch
Visualization orbit readout
Latitude
Unknown
Longitude
Unknown
Altitude
Unknown
Speed
Unknown
Apparent Right ascension
Unknown
Apparent Declination
Unknown
Sunlit
N/A
Visualization observer readout
Local Sidereal Time
11:31:22
Azimuth
Unknown
Elevation
Unknown
Doppler factor
Unknown
Orbital elements
Apogee altitude
35,805.581 km
Perigee altitude
35,473.381 km
Semi-major axis
42,017.618 km
Eccentricity
0.00395
Inclination
1.7687°
RAAN
82.6817°
Arg. of periapsis
319.6162°
True anomaly
41.01984°
Mean anomaly
40.7232°
Eccentric anomaly
40.87141°
Mean motion
0.252 °/min
Orbital period
1,428.59 mins
BSTAR
0
Loading maneuver chart data...
Computing Atmospheric mass density...
Loading historical data...
Loading historical data...
Loading historical data...
Loading historical data...
Loading historical data...
Loading historical data...
Loading historical data...

Documentation

Showing up to 5 results
|